owner,sensor,date,latitude,longitude,vertical_datum,wind_speed,wind_to_direction,wind_speed_of_gust,qcFlag 
SCCF RECON,ioos:station:SCCF:53:1,2013-02-01T00:00:00Z,26.6493,-81.8810,2.11,4.8,335.1,-9999.0,'1111122,1111122,1111122' 
SCCF RECON,ioos:station:SCCF:53:1,2013-02-01T00:15:00Z,26.6493,-81.8810,2.11,5.8,347.7,-9999.0,'1111122,1111122,1111122' 
SCCF RECON,ioos:station:SCCF:53:1,2013-02-01T00:30:00Z,26.6493,-81.8810,2.11,5.3,336.6,-9999.0,'1111122,1111122,1111122' 
SCCF RECON,ioos:station:SCCF:53:1,2013-02-01T00:45:00Z,26.6493,-81.8810,2.11,5.4,341.8,-9999.0,'1111122,1111122,1111122' 
SCCF RECON,ioos:station:SCCF:53:1,2013-02-01T01:00:00Z,26.6493,-81.8810,2.11,4.3,349.4,-9999.0,'1111122,1111122,1111122' 
SCCF RECON,ioos:station:SCCF:53:1,2013-02-01T01:15:00Z,26.6493,-81.8810,2.11,5.7,340.7,-9999.0,'1111122,1111122,1111122' 
SCCF RECON,ioos:station:SCCF:53:1,2013-02-01T01:30:00Z,26.6493,-81.8810,2.11,5.8,346.1,-9999.0,'1111122,1111122,1111122' 
SCCF RECON,ioos:station:SCCF:53:1,2013-02-01T01:45:00Z,26.6493,-81.8810,2.11,4.7,333.5,-9999.0,'1111122,1111122,1111122' 
SCCF RECON,ioos:station:SCCF:53:1,2013-02-01T02:00:00Z,26.6493,-81.8810,2.11,5.3,0.1,-9999.0,'1111122,1111122,1111122' 
SCCF RECON,ioos:station:SCCF:53:1,2013-02-01T02:15:00Z,26.6493,-81.8810,2.11,5.4,343.5,-9999.0,'1111122,1111122,1111122' 
SCCF RECON,ioos:station:SCCF:53:1,2013-02-01T02:30:00Z,26.6493,-81.8810,2.11,5.6,344.3,-9999.0,'1111122,1111122,1111122' 
SCCF RECON,ioos:station:SCCF:53:1,2013-02-01T02:45:00Z,26.6493,-81.8810,2.11,5.4,0.9,-9999.0,'1111122,1111122,1111122' 
SCCF RECON,ioos:station:SCCF:53:1,2013-02-01T03:00:00Z,26.6493,-81.8810,2.11,6.2,352.9,-9999.0,'1111122,1111122,1111122' 
SCCF RECON,ioos:station:SCCF:53:1,2013-02-01T03:15:00Z,26.6493,-81.8810,2.11,5.9,350.2,-9999.0,'1111122,1111122,1111122' 
SCCF RECON,ioos:station:SCCF:53:1,2013-02-01T03:30:00Z,26.6493,-81.8810,2.11,6.1,354.9,-9999.0,'1111122,1111122,1111122' 
SCCF RECON,ioos:station:SCCF:53:1,2013-02-01T03:45:00Z,26.6493,-81.8810,2.11,5.6,0.9,-9999.0,'1111122,1111122,1111122' 
SCCF RECON,ioos:station:SCCF:53:1,2013-02-01T04:00:00Z,26.6493,-81.8810,2.11,6.4,0.3,-9999.0,'1111122,1111122,1111122' 
SCCF RECON,ioos:station:SCCF:53:1,2013-02-01T04:15:00Z,26.6493,-81.8810,2.11,4.8,13.6,-9999.0,'1111122,1111122,1111122' 
SCCF RECON,ioos:station:SCCF:53:1,2013-02-01T04:30:00Z,26.6493,-81.8810,2.11,4.0,15.7,-9999.0,'1111122,1111122,1111122' 
SCCF RECON,ioos:station:SCCF:53:1,2013-02-01T04:45:00Z,26.6493,-81.8810,2.11,2.9,27.7,-9999.0,'1111122,1111122,1111122' 
SCCF RECON,ioos:station:SCCF:53:1,2013-02-01T05:00:00Z,26.6493,-81.8810,2.11,3.5,28.3,-9999.0,'1111122,1111122,1111122' 
SCCF RECON,ioos:station:SCCF:53:1,2013-02-01T05:15:00Z,26.6493,-81.8810,2.11,4.5,16.4,-9999.0,'1111122,1111122,1111122' 
SCCF RECON,ioos:station:SCCF:53:1,2013-02-01T05:30:00Z,26.6493,-81.8810,2.11,3.9,20.8,-9999.0,'1111122,1111122,1111122' 
SCCF RECON,ioos:station:SCCF:53:1,2013-02-01T05:45:00Z,26.6493,-81.8810,2.11,5.1,8.1,-9999.0,'1111122,1111122,1111122' 
SCCF RECON,ioos:station:SCCF:53:1,2013-02-01T06:00:00Z,26.6493,-81.8810,2.11,3.3,18.7,-9999.0,'1111122,1111122,1111122' 
SCCF RECON,ioos:station:SCCF:53:1,2013-02-01T06:15:00Z,26.6493,-81.8810,2.11,3.8,19.5,-9999.0,'1111122,1111122,1111122' 
SCCF RECON,ioos:station:SCCF:53:1,2013-02-01T06:30:00Z,26.6493,-81.8810,2.11,4.3,28.1,-9999.0,'1111122,1111122,1111122' 
SCCF RECON,ioos:station:SCCF:53:1,2013-02-01T06:45:00Z,26.6493,-81.8810,2.11,4.1,18.1,-9999.0,'1111122,1111122,1111122' 
SCCF RECON,ioos:station:SCCF:53:1,2013-02-01T07:00:00Z,26.6493,-81.8810,2.11,5.1,21.1,-9999.0,'1111122,1111122,1111122' 
SCCF RECON,ioos:station:SCCF:53:1,2013-02-01T07:15:00Z,26.6493,-81.8810,2.11,4.5,12.7,-9999.0,'1111122,1111122,1111122' 
SCCF RECON,ioos:station:SCCF:53:1,2013-02-01T07:30:00Z,26.6493,-81.8810,2.11,4.3,13.3,-9999.0,'1111122,1111122,1111122' 
SCCF RECON,ioos:station:SCCF:53:1,2013-02-01T07:45:00Z,26.6493,-81.8810,2.11,3.5,12.4,-9999.0,'1111122,1111122,1111122' 
SCCF RECON,ioos:station:SCCF:53:1,2013-02-01T08:00:00Z,26.6493,-81.8810,2.11,3.0,26.0,-9999.0,'1111122,1111122,1111122' 
SCCF RECON,ioos:station:SCCF:53:1,2013-02-01T08:15:00Z,26.6493,-81.8810,2.11,3.2,18.5,-9999.0,'1111122,1111122,1111122' 
SCCF RECON,ioos:station:SCCF:53:1,2013-02-01T08:30:00Z,26.6493,-81.8810,2.11,4.8,27.9,-9999.0,'1111122,1111122,1111122' 
SCCF RECON,ioos:station:SCCF:53:1,2013-02-01T08:45:00Z,26.6493,-81.8810,2.11,5.4,24.8,-9999.0,'1111122,1111122,1111122' 
SCCF RECON,ioos:station:SCCF:53:1,2013-02-01T09:00:00Z,26.6493,-81.8810,2.11,4.7,23.6,-9999.0,'1111122,1111122,1111122' 
SCCF RECON,ioos:station:SCCF:53:1,2013-02-01T09:15:00Z,26.6493,-81.8810,2.11,3.8,33.2,-9999.0,'1111122,1111122,1111122' 
SCCF RECON,ioos:station:SCCF:53:1,2013-02-01T09:30:00Z,26.6493,-81.8810,2.11,4.6,33.8,-9999.0,'1111122,1111122,1111122' 
SCCF RECON,ioos:station:SCCF:53:1,2013-02-01T09:45:00Z,26.6493,-81.8810,2.11,4.9,37.4,-9999.0,'1111122,1111122,1111122' 
SCCF RECON,ioos:station:SCCF:53:1,2013-02-01T10:00:00Z,26.6493,-81.8810,2.11,6.2,33.5,-9999.0,'1111122,1111122,1111122' 
SCCF RECON,ioos:station:SCCF:53:1,2013-02-01T10:15:00Z,26.6493,-81.8810,2.11,3.9,30.1,-9999.0,'1111122,1111122,1111122' 
SCCF RECON,ioos:station:SCCF:53:1,2013-02-01T10:30:00Z,26.6493,-81.8810,2.11,4.9,21.7,-9999.0,'1111122,1111122,1111122' 
SCCF RECON,ioos:station:SCCF:53:1,2013-02-01T10:45:00Z,26.6493,-81.8810,2.11,4.3,28.8,-9999.0,'1111122,1111122,1111122' 
SCCF RECON,ioos:station:SCCF:53:1,2013-02-01T11:00:00Z,26.6493,-81.8810,2.11,4.7,29.9,-9999.0,'1111122,1111122,1111122' 
SCCF RECON,ioos:station:SCCF:53:1,2013-02-01T11:15:00Z,26.6493,-81.8810,2.11,5.3,24.4,-9999.0,'1111122,1111122,1111122' 
SCCF RECON,ioos:station:SCCF:53:1,2013-02-01T11:30:00Z,26.6493,-81.8810,2.11,5.4,16.1,-9999.0,'1111122,1111122,1111122' 
SCCF RECON,ioos:station:SCCF:53:1,2013-02-01T11:45:00Z,26.6493,-81.8810,2.11,5.0,31.1,-9999.0,'1111122,1111122,1111122' 
SCCF RECON,ioos:station:SCCF:53:1,2013-02-01T12:00:00Z,26.6493,-81.8810,2.11,5.4,26.8,-9999.0,'1111122,1111122,1111122' 
SCCF RECON,ioos:station:SCCF:53:1,2013-02-01T12:15:00Z,26.6493,-81.8810,2.11,4.9,25.0,-9999.0,'1111122,1111122,1111122' 
SCCF RECON,ioos:station:SCCF:53:1,2013-02-01T12:30:00Z,26.6493,-81.8810,2.11,5.8,24.0,-9999.0,'1111122,1111122,1111122' 
SCCF RECON,ioos:station:SCCF:53:1,2013-02-01T12:45:00Z,26.6493,-81.8810,2.11,5.9,18.6,-9999.0,'1111122,1111122,1111122' 
SCCF RECON,ioos:station:SCCF:53:1,2013-02-01T13:00:00Z,26.6493,-81.8810,2.11,6.2,28.9,-9999.0,'1111122,1111122,1111122' 
SCCF RECON,ioos:station:SCCF:53:1,2013-02-01T13:15:00Z,26.6493,-81.8810,2.11,5.9,43.2,-9999.0,'1111122,1111122,1111122' 
SCCF RECON,ioos:station:SCCF:53:1,2013-02-01T13:30:00Z,26.6493,-81.8810,2.11,8.0,27.4,-9999.0,'1111122,1111122,1111122' 
SCCF RECON,ioos:station:SCCF:53:1,2013-02-01T13:45:00Z,26.6493,-81.8810,2.11,8.5,39.0,-9999.0,'1111122,1111122,1111122' 
SCCF RECON,ioos:station:SCCF:53:1,2013-02-01T14:00:00Z,26.6493,-81.8810,2.11,7.6,35.3,-9999.0,'1111122,1111122,1111122' 
SCCF RECON,ioos:station:SCCF:53:1,2013-02-01T14:15:00Z,26.6493,-81.8810,2.11,7.3,44.2,-9999.0,'1111122,1111122,1111122' 
SCCF RECON,ioos:station:SCCF:53:1,2013-02-01T14:30:00Z,26.6493,-81.8810,2.11,7.4,18.7,-9999.0,'1111122,1111122,1111122' 
SCCF RECON,ioos:station:SCCF:53:1,2013-02-01T14:45:00Z,26.6493,-81.8810,2.11,5.9,30.5,-9999.0,'1111122,1111122,1111122' 
SCCF RECON,ioos:station:SCCF:53:1,2013-02-01T15:00:00Z,26.6493,-81.8810,2.11,7.6,26.5,-9999.0,'1111122,1111122,1111122' 
SCCF RECON,ioos:station:SCCF:53:1,2013-02-01T15:15:00Z,26.6493,-81.8810,2.11,6.3,26.0,-9999.0,'1111122,1111122,1111122' 
SCCF RECON,ioos:station:SCCF:53:1,2013-02-01T15:30:00Z,26.6493,-81.8810,2.11,7.6,42.8,-9999.0,'1111122,1111122,1111122' 
SCCF RECON,ioos:station:SCCF:53:1,2013-02-01T15:45:00Z,26.6493,-81.8810,2.11,7.0,12.1,-9999.0,'1111122,1111122,1111122' 
SCCF RECON,ioos:station:SCCF:53:1,2013-02-01T16:00:00Z,26.6493,-81.8810,2.11,6.4,32.4,-9999.0,'1111122,1111122,1111122' 
SCCF RECON,ioos:station:SCCF:53:1,2013-02-01T16:15:00Z,26.6493,-81.8810,2.11,5.9,48.7,-9999.0,'1111122,1111122,1111122' 
SCCF RECON,ioos:station:SCCF:53:1,2013-02-01T16:30:00Z,26.6493,-81.8810,2.11,4.5,49.4,-9999.0,'1111122,1111122,1111122' 
SCCF RECON,ioos:station:SCCF:53:1,2013-02-01T16:45:00Z,26.6493,-81.8810,2.11,5.5,36.3,-9999.0,'1111122,1111122,1111122' 
SCCF RECON,ioos:station:SCCF:53:1,2013-02-01T17:00:00Z,26.6493,-81.8810,2.11,5.5,22.6,-9999.0,'1111122,1111122,1111122' 
SCCF RECON,ioos:station:SCCF:53:1,2013-02-01T17:15:00Z,26.6493,-81.8810,2.11,4.5,46.2,-9999.0,'1111122,1111122,1111122' 
SCCF RECON,ioos:station:SCCF:53:1,2013-02-01T17:30:00Z,26.6493,-81.8810,2.11,3.9,36.3,-9999.0,'1111122,1111122,1111122' 
SCCF RECON,ioos:station:SCCF:53:1,2013-02-01T17:45:00Z,26.6493,-81.8810,2.11,6.9,27.5,-9999.0,'1111122,1111122,1111122' 
SCCF RECON,ioos:station:SCCF:53:1,2013-02-01T18:00:00Z,26.6493,-81.8810,2.11,5.4,42.1,-9999.0,'1111122,1111122,1111122' 
SCCF RECON,ioos:station:SCCF:53:1,2013-02-01T18:15:00Z,26.6493,-81.8810,2.11,3.9,67.3,-9999.0,'1111122,1111122,1111122' 
SCCF RECON,ioos:station:SCCF:53:1,2013-02-01T18:30:00Z,26.6493,-81.8810,2.11,4.5,55.2,-9999.0,'1111122,1111122,1111122' 
SCCF RECON,ioos:station:SCCF:53:1,2013-02-01T18:45:00Z,26.6493,-81.8810,2.11,5.1,45.0,-9999.0,'1111122,1111122,1111122' 
SCCF RECON,ioos:station:SCCF:53:1,2013-02-01T19:00:00Z,26.6493,-81.8810,2.11,5.7,35.3,-9999.0,'1111122,1111122,1111122' 
SCCF RECON,ioos:station:SCCF:53:1,2013-02-01T19:15:00Z,26.6493,-81.8810,2.11,5.6,40.6,-9999.0,'1111122,1111122,1111122' 
SCCF RECON,ioos:station:SCCF:53:1,2013-02-01T19:30:00Z,26.6493,-81.8810,2.11,6.2,35.6,-9999.0,'1111122,1111122,1111122' 
SCCF RECON,ioos:station:SCCF:53:1,2013-02-01T19:45:00Z,26.6493,-81.8810,2.11,7.4,30.6,-9999.0,'1111122,1111122,1111122' 
SCCF RECON,ioos:station:SCCF:53:1,2013-02-01T20:00:00Z,26.6493,-81.8810,2.11,5.7,33.7,-9999.0,'1111122,1111122,1111122' 
SCCF RECON,ioos:station:SCCF:53:1,2013-02-01T20:15:00Z,26.6493,-81.8810,2.11,5.5,34.2,-9999.0,'1111122,1111122,1111122' 
SCCF RECON,ioos:station:SCCF:53:1,2013-02-01T20:30:00Z,26.6493,-81.8810,2.11,4.0,33.9,-9999.0,'1111122,1111122,1111122' 
SCCF RECON,ioos:station:SCCF:53:1,2013-02-01T20:45:00Z,26.6493,-81.8810,2.11,5.9,49.6,-9999.0,'1111122,1111122,1111122' 
SCCF RECON,ioos:station:SCCF:53:1,2013-02-01T21:00:00Z,26.6493,-81.8810,2.11,4.9,48.7,-9999.0,'1111122,1111122,1111122' 
SCCF RECON,ioos:station:SCCF:53:1,2013-02-01T21:15:00Z,26.6493,-81.8810,2.11,5.4,60.6,-9999.0,'1111122,1111122,1111122' 
SCCF RECON,ioos:station:SCCF:53:1,2013-02-01T21:30:00Z,26.6493,-81.8810,2.11,4.3,36.0,-9999.0,'1111122,1111122,1111122' 
SCCF RECON,ioos:station:SCCF:53:1,2013-02-01T21:45:00Z,26.6493,-81.8810,2.11,4.9,36.6,-9999.0,'1111122,1111122,1111122' 
SCCF RECON,ioos:station:SCCF:53:1,2013-02-01T22:00:00Z,26.6493,-81.8810,2.11,6.1,45.4,-9999.0,'1111122,1111122,1111122' 
SCCF RECON,ioos:station:SCCF:53:1,2013-02-01T22:15:00Z,26.6493,-81.8810,2.11,5.7,43.1,-9999.0,'1111122,1111122,1111122' 
SCCF RECON,ioos:station:SCCF:53:1,2013-02-01T22:30:00Z,26.6493,-81.8810,2.11,5.5,50.0,-9999.0,'1111122,1111122,1111122' 
SCCF RECON,ioos:station:SCCF:53:1,2013-02-01T22:45:00Z,26.6493,-81.8810,2.11,4.5,65.3,-9999.0,'1111122,1111122,1111122' 
SCCF RECON,ioos:station:SCCF:53:1,2013-02-01T23:00:00Z,26.6493,-81.8810,2.11,4.4,50.5,-9999.0,'1111122,1111122,1111122' 
SCCF RECON,ioos:station:SCCF:53:1,2013-02-01T23:15:00Z,26.6493,-81.8810,2.11,4.7,43.5,-9999.0,'1111122,1111122,1111122' 
SCCF RECON,ioos:station:SCCF:53:1,2013-02-01T23:30:00Z,26.6493,-81.8810,2.11,3.7,33.5,-9999.0,'1111122,1111122,1111122' 
SCCF RECON,ioos:station:SCCF:53:1,2013-02-01T23:45:00Z,26.6493,-81.8810,2.11,3.9,23.2,-9999.0,'1111122,1111122,1111122' 
SCCF RECON,ioos:station:SCCF:53:1,2013-02-02T00:00:00Z,26.6493,-81.8810,2.11,3.1,29.2,-9999.0,'1111122,1111122,1111122' 
SCCF RECON,ioos:station:SCCF:53:1,2013-02-02T00:15:00Z,26.6493,-81.8810,2.11,3.6,38.1,-9999.0,'1111122,1111122,1111122' 
SCCF RECON,ioos:station:SCCF:53:1,2013-02-02T00:30:00Z,26.6493,-81.8810,2.11,3.7,32.7,-9999.0,'1111122,1111122,1111122' 
SCCF RECON,ioos:station:SCCF:53:1,2013-02-02T00:45:00Z,26.6493,-81.8810,2.11,4.7,37.1,-9999.0,'1111122,1111122,1111122' 
SCCF RECON,ioos:station:SCCF:53:1,2013-02-02T01:00:00Z,26.6493,-81.8810,2.11,4.0,30.3,-9999.0,'1111122,1111122,1111122' 
SCCF RECON,ioos:station:SCCF:53:1,2013-02-02T01:15:00Z,26.6493,-81.8810,2.11,3.6,42.4,-9999.0,'1111122,1111122,1111122' 
SCCF RECON,ioos:station:SCCF:53:1,2013-02-02T01:30:00Z,26.6493,-81.8810,2.11,4.1,34.0,-9999.0,'1111122,1111122,1111122' 
SCCF RECON,ioos:station:SCCF:53:1,2013-02-02T01:45:00Z,26.6493,-81.8810,2.11,3.6,31.8,-9999.0,'1111122,1111122,1111122' 
SCCF RECON,ioos:station:SCCF:53:1,2013-02-02T02:00:00Z,26.6493,-81.8810,2.11,4.5,40.3,-9999.0,'1111122,1111122,1111122' 
SCCF RECON,ioos:station:SCCF:53:1,2013-02-02T02:15:00Z,26.6493,-81.8810,2.11,4.4,43.6,-9999.0,'1111122,1111122,1111122' 
SCCF RECON,ioos:station:SCCF:53:1,2013-02-02T02:30:00Z,26.6493,-81.8810,2.11,4.5,45.4,-9999.0,'1111122,1111122,1111122' 
SCCF RECON,ioos:station:SCCF:53:1,2013-02-02T02:45:00Z,26.6493,-81.8810,2.11,3.4,40.4,-9999.0,'1111122,1111122,1111122' 
SCCF RECON,ioos:station:SCCF:53:1,2013-02-02T03:00:00Z,26.6493,-81.8810,2.11,3.5,48.7,-9999.0,'1111122,1111122,1111122' 
SCCF RECON,ioos:station:SCCF:53:1,2013-02-02T03:15:00Z,26.6493,-81.8810,2.11,4.4,31.5,-9999.0,'1111122,1111122,1111122' 
SCCF RECON,ioos:station:SCCF:53:1,2013-02-02T03:30:00Z,26.6493,-81.8810,2.11,3.3,37.3,-9999.0,'1111122,1111122,1111122' 
SCCF RECON,ioos:station:SCCF:53:1,2013-02-02T03:45:00Z,26.6493,-81.8810,2.11,3.9,36.0,-9999.0,'1111122,1111122,1111122' 
SCCF RECON,ioos:station:SCCF:53:1,2013-02-02T04:00:00Z,26.6493,-81.8810,2.11,3.5,46.9,-9999.0,'1111122,1111122,1111122' 
SCCF RECON,ioos:station:SCCF:53:1,2013-02-02T04:15:00Z,26.6493,-81.8810,2.11,3.7,28.3,-9999.0,'1111122,1111122,1111122' 
SCCF RECON,ioos:station:SCCF:53:1,2013-02-02T04:30:00Z,26.6493,-81.8810,2.11,3.8,35.1,-9999.0,'1111122,1111122,1111122' 
SCCF RECON,ioos:station:SCCF:53:1,2013-02-02T04:45:00Z,26.6493,-81.8810,2.11,2.9,42.8,-9999.0,'1111122,1111122,1111122' 
SCCF RECON,ioos:station:SCCF:53:1,2013-02-02T05:00:00Z,26.6493,-81.8810,2.11,2.7,48.9,-9999.0,'1111122,1111122,1111122' 
SCCF RECON,ioos:station:SCCF:53:1,2013-02-02T05:15:00Z,26.6493,-81.8810,2.11,2.6,76.6,-9999.0,'1111122,1111122,1111122' 
SCCF RECON,ioos:station:SCCF:53:1,2013-02-02T05:30:00Z,26.6493,-81.8810,2.11,2.1,83.6,-9999.0,'1111122,1111122,1111122' 
SCCF RECON,ioos:station:SCCF:53:1,2013-02-02T05:45:00Z,26.6493,-81.8810,2.11,2.3,18.5,-9999.0,'1111122,1111122,1111122' 
SCCF RECON,ioos:station:SCCF:53:1,2013-02-02T06:00:00Z,26.6493,-81.8810,2.11,3.5,350.2,-9999.0,'1111122,1111122,1111122' 
SCCF RECON,ioos:station:SCCF:53:1,2013-02-02T06:15:00Z,26.6493,-81.8810,2.11,3.5,8.2,-9999.0,'1111122,1111122,1111122' 
SCCF RECON,ioos:station:SCCF:53:1,2013-02-02T06:30:00Z,26.6493,-81.8810,2.11,3.7,23.3,-9999.0,'1111122,1111122,1111122' 
SCCF RECON,ioos:station:SCCF:53:1,2013-02-02T06:45:00Z,26.6493,-81.8810,2.11,3.7,18.5,-9999.0,'1111122,1111122,1111122' 
SCCF RECON,ioos:station:SCCF:53:1,2013-02-02T07:00:00Z,26.6493,-81.8810,2.11,4.6,27.0,-9999.0,'1111122,1111122,1111122' 
SCCF RECON,ioos:station:SCCF:53:1,2013-02-02T07:15:00Z,26.6493,-81.8810,2.11,4.1,41.4,-9999.0,'1111122,1111122,1111122' 
SCCF RECON,ioos:station:SCCF:53:1,2013-02-02T07:30:00Z,26.6493,-81.8810,2.11,5.5,31.8,-9999.0,'1111122,1111122,1111122' 
SCCF RECON,ioos:station:SCCF:53:1,2013-02-02T07:45:00Z,26.6493,-81.8810,2.11,5.6,36.6,-9999.0,'1111122,1111122,1111122' 
SCCF RECON,ioos:station:SCCF:53:1,2013-02-02T08:00:00Z,26.6493,-81.8810,2.11,4.6,39.4,-9999.0,'1111122,1111122,1111122' 
SCCF RECON,ioos:station:SCCF:53:1,2013-02-02T08:15:00Z,26.6493,-81.8810,2.11,4.8,44.4,-9999.0,'1111122,1111122,1111122' 
SCCF RECON,ioos:station:SCCF:53:1,2013-02-02T08:30:00Z,26.6493,-81.8810,2.11,5.3,32.5,-9999.0,'1111122,1111122,1111122' 
SCCF RECON,ioos:station:SCCF:53:1,2013-02-02T08:45:00Z,26.6493,-81.8810,2.11,5.7,34.5,-9999.0,'1111122,1111122,1111122' 
SCCF RECON,ioos:station:SCCF:53:1,2013-02-02T09:00:00Z,26.6493,-81.8810,2.11,6.2,36.1,-9999.0,'1111122,1111122,1111122' 
SCCF RECON,ioos:station:SCCF:53:1,2013-02-02T09:15:00Z,26.6493,-81.8810,2.11,5.4,44.4,-9999.0,'1111122,1111122,1111122' 
SCCF RECON,ioos:station:SCCF:53:1,2013-02-02T09:30:00Z,26.6493,-81.8810,2.11,4.5,35.1,-9999.0,'1111122,1111122,1111122' 
SCCF RECON,ioos:station:SCCF:53:1,2013-02-02T09:45:00Z,26.6493,-81.8810,2.11,4.4,32.9,-9999.0,'1111122,1111122,1111122' 
SCCF RECON,ioos:station:SCCF:53:1,2013-02-02T10:00:00Z,26.6493,-81.8810,2.11,4.7,32.1,-9999.0,'1111122,1111122,1111122' 
SCCF RECON,ioos:station:SCCF:53:1,2013-02-02T10:15:00Z,26.6493,-81.8810,2.11,5.2,37.3,-9999.0,'1111122,1111122,1111122' 
SCCF RECON,ioos:station:SCCF:53:1,2013-02-02T10:30:00Z,26.6493,-81.8810,2.11,5.2,46.3,-9999.0,'1111122,1111122,1111122' 
SCCF RECON,ioos:station:SCCF:53:1,2013-02-02T10:45:00Z,26.6493,-81.8810,2.11,6.8,46.8,-9999.0,'1111122,1111122,1111122' 
SCCF RECON,ioos:station:SCCF:53:1,2013-02-02T11:00:00Z,26.6493,-81.8810,2.11,6.5,49.4,-9999.0,'1111122,1111122,1111122' 
SCCF RECON,ioos:station:SCCF:53:1,2013-02-02T11:15:00Z,26.6493,-81.8810,2.11,5.8,37.0,-9999.0,'1111122,1111122,1111122' 
SCCF RECON,ioos:station:SCCF:53:1,2013-02-02T11:30:00Z,26.6493,-81.8810,2.11,6.0,45.0,-9999.0,'1111122,1111122,1111122' 
SCCF RECON,ioos:station:SCCF:53:1,2013-02-02T11:45:00Z,26.6493,-81.8810,2.11,6.5,39.5,-9999.0,'1111122,1111122,1111122' 
SCCF RECON,ioos:station:SCCF:53:1,2013-02-02T12:00:00Z,26.6493,-81.8810,2.11,5.6,37.2,-9999.0,'1111122,1111122,1111122' 
SCCF RECON,ioos:station:SCCF:53:1,2013-02-02T12:15:00Z,26.6493,-81.8810,2.11,4.8,48.3,-9999.0,'1111122,1111122,1111122' 
SCCF RECON,ioos:station:SCCF:53:1,2013-02-02T12:30:00Z,26.6493,-81.8810,2.11,5.2,37.8,-9999.0,'1111122,1111122,1111122' 
SCCF RECON,ioos:station:SCCF:53:1,2013-02-02T12:45:00Z,26.6493,-81.8810,2.11,5.9,52.3,-9999.0,'1111122,1111122,1111122' 
SCCF RECON,ioos:station:SCCF:53:1,2013-02-02T13:00:00Z,26.6493,-81.8810,2.11,5.9,46.4,-9999.0,'1111122,1111122,1111122' 
SCCF RECON,ioos:station:SCCF:53:1,2013-02-02T13:15:00Z,26.6493,-81.8810,2.11,5.7,39.2,-9999.0,'1111122,1111122,1111122' 
SCCF RECON,ioos:station:SCCF:53:1,2013-02-02T13:30:00Z,26.6493,-81.8810,2.11,6.2,42.9,-9999.0,'1111122,1111122,1111122' 
SCCF RECON,ioos:station:SCCF:53:1,2013-02-02T13:45:00Z,26.6493,-81.8810,2.11,5.3,53.8,-9999.0,'1111122,1111122,1111122' 
SCCF RECON,ioos:station:SCCF:53:1,2013-02-02T14:00:00Z,26.6493,-81.8810,2.11,4.4,42.8,-9999.0,'1111122,1111122,1111122' 
SCCF RECON,ioos:station:SCCF:53:1,2013-02-02T14:15:00Z,26.6493,-81.8810,2.11,5.4,48.8,-9999.0,'1111122,1111122,1111122' 
SCCF RECON,ioos:station:SCCF:53:1,2013-02-02T14:30:00Z,26.6493,-81.8810,2.11,5.0,54.1,-9999.0,'1111122,1111122,1111122' 
SCCF RECON,ioos:station:SCCF:53:1,2013-02-02T14:45:00Z,26.6493,-81.8810,2.11,5.4,52.6,-9999.0,'1111122,1111122,1111122' 
SCCF RECON,ioos:station:SCCF:53:1,2013-02-02T15:00:00Z,26.6493,-81.8810,2.11,5.0,41.4,-9999.0,'1111122,1111122,1111122' 
SCCF RECON,ioos:station:SCCF:53:1,2013-02-02T15:15:00Z,26.6493,-81.8810,2.11,4.3,50.0,-9999.0,'1111122,1111122,1111122' 
SCCF RECON,ioos:station:SCCF:53:1,2013-02-02T15:30:00Z,26.6493,-81.8810,2.11,4.6,40.0,-9999.0,'1111122,1111122,1111122' 
SCCF RECON,ioos:station:SCCF:53:1,2013-02-02T15:45:00Z,26.6493,-81.8810,2.11,4.0,50.2,-9999.0,'1111122,1111122,1111122' 
SCCF RECON,ioos:station:SCCF:53:1,2013-02-02T16:00:00Z,26.6493,-81.8810,2.11,3.6,48.6,-9999.0,'1111122,1111122,1111122' 
SCCF RECON,ioos:station:SCCF:53:1,2013-02-02T16:15:00Z,26.6493,-81.8810,2.11,3.0,22.6,-9999.0,'1111122,1111122,1111122' 
SCCF RECON,ioos:station:SCCF:53:1,2013-02-02T16:30:00Z,26.6493,-81.8810,2.11,2.9,29.1,-9999.0,'1111122,1111122,1111122' 
SCCF RECON,ioos:station:SCCF:53:1,2013-02-02T16:45:00Z,26.6493,-81.8810,2.11,4.9,36.5,-9999.0,'1111122,1111122,1111122' 
SCCF RECON,ioos:station:SCCF:53:1,2013-02-02T17:00:00Z,26.6493,-81.8810,2.11,4.4,37.2,-9999.0,'1111122,1111122,1111122' 
SCCF RECON,ioos:station:SCCF:53:1,2013-02-02T17:15:00Z,26.6493,-81.8810,2.11,2.1,30.7,-9999.0,'1111122,1111122,1111122' 
SCCF RECON,ioos:station:SCCF:53:1,2013-02-02T17:30:00Z,26.6493,-81.8810,2.11,2.6,25.9,-9999.0,'1111122,1111122,1111122' 
SCCF RECON,ioos:station:SCCF:53:1,2013-02-02T17:45:00Z,26.6493,-81.8810,2.11,1.2,4.2,-9999.0,'1111122,1111122,1111122' 
SCCF RECON,ioos:station:SCCF:53:1,2013-02-02T18:00:00Z,26.6493,-81.8810,2.11,2.5,81.9,-9999.0,'1111122,1111122,1111122' 
SCCF RECON,ioos:station:SCCF:53:1,2013-02-02T18:15:00Z,26.6493,-81.8810,2.11,3.3,93.6,-9999.0,'1111122,1111122,1111122' 
SCCF RECON,ioos:station:SCCF:53:1,2013-02-02T18:30:00Z,26.6493,-81.8810,2.11,1.4,352.1,-9999.0,'1111122,1111122,1111122' 
SCCF RECON,ioos:station:SCCF:53:1,2013-02-02T18:45:00Z,26.6493,-81.8810,2.11,2.4,63.6,-9999.0,'1111122,1111122,1111122' 
SCCF RECON,ioos:station:SCCF:53:1,2013-02-02T19:00:00Z,26.6493,-81.8810,2.11,2.9,201.5,-9999.0,'1111122,1111122,1111122' 
SCCF RECON,ioos:station:SCCF:53:1,2013-02-02T19:15:00Z,26.6493,-81.8810,2.11,2.5,30.0,-9999.0,'1111122,1111122,1111122' 
SCCF RECON,ioos:station:SCCF:53:1,2013-02-02T19:30:00Z,26.6493,-81.8810,2.11,0.3,333.1,-9999.0,'1111122,1111122,1111122' 
SCCF RECON,ioos:station:SCCF:53:1,2013-02-02T19:45:00Z,26.6493,-81.8810,2.11,1.6,345.5,-9999.0,'1111122,1111122,1111122' 
SCCF RECON,ioos:station:SCCF:53:1,2013-02-02T20:00:00Z,26.6493,-81.8810,2.11,0.8,326.9,-9999.0,'1111122,1111122,1111122' 
SCCF RECON,ioos:station:SCCF:53:1,2013-02-02T20:15:00Z,26.6493,-81.8810,2.11,0.5,293.7,-9999.0,'1111122,1111122,1111122' 
SCCF RECON,ioos:station:SCCF:53:1,2013-02-02T20:30:00Z,26.6493,-81.8810,2.11,1.5,258.9,-9999.0,'1111122,1111122,1111122' 
SCCF RECON,ioos:station:SCCF:53:1,2013-02-02T20:45:00Z,26.6493,-81.8810,2.11,0.8,36.7,-9999.0,'1111122,1111122,1111122' 
SCCF RECON,ioos:station:SCCF:53:1,2013-02-02T21:00:00Z,26.6493,-81.8810,2.11,1.6,354.9,-9999.0,'1111122,1111122,1111122' 
SCCF RECON,ioos:station:SCCF:53:1,2013-02-02T21:15:00Z,26.6493,-81.8810,2.11,0.4,306.5,-9999.0,'1111122,1111122,1111122' 
SCCF RECON,ioos:station:SCCF:53:1,2013-02-02T21:30:00Z,26.6493,-81.8810,2.11,2.0,338.7,-9999.0,'1111122,1111122,1111122' 
SCCF RECON,ioos:station:SCCF:53:1,2013-02-02T21:45:00Z,26.6493,-81.8810,2.11,1.8,334.3,-9999.0,'1111122,1111122,1111122' 
SCCF RECON,ioos:station:SCCF:53:1,2013-02-02T22:00:00Z,26.6493,-81.8810,2.11,1.2,338.7,-9999.0,'1111122,1111122,1111122' 
SCCF RECON,ioos:station:SCCF:53:1,2013-02-02T22:15:00Z,26.6493,-81.8810,2.11,0.1,317.6,-9999.0,'1111122,1111122,1111122' 
SCCF RECON,ioos:station:SCCF:53:1,2013-02-02T22:30:00Z,26.6493,-81.8810,2.11,0.8,275.4,-9999.0,'1111122,1111122,1111122' 
SCCF RECON,ioos:station:SCCF:53:1,2013-02-02T22:45:00Z,26.6493,-81.8810,2.11,-9999.0,18.6,-9999.0,'1111122,1111122,1111122' 
SCCF RECON,ioos:station:SCCF:53:1,2013-02-02T23:00:00Z,26.6493,-81.8810,2.11,1.4,291.6,-9999.0,'1111122,1111122,1111122' 
SCCF RECON,ioos:station:SCCF:53:1,2013-02-02T23:15:00Z,26.6493,-81.8810,2.11,2.6,295.5,-9999.0,'1111122,1111122,1111122' 
SCCF RECON,ioos:station:SCCF:53:1,2013-02-02T23:30:00Z,26.6493,-81.8810,2.11,1.3,317.3,-9999.0,'1111122,1111122,1111122' 
SCCF RECON,ioos:station:SCCF:53:1,2013-02-02T23:45:00Z,26.6493,-81.8810,2.11,2.6,328.7,-9999.0,'1111122,1111122,1111122' 
SCCF RECON,ioos:station:SCCF:53:1,2013-02-03T00:00:00Z,26.6493,-81.8810,2.11,3.0,327.1,-9999.0,'1111122,1111122,1111122' 
SCCF RECON,ioos:station:SCCF:53:1,2013-02-03T00:15:00Z,26.6493,-81.8810,2.11,3.0,329.5,-9999.0,'1111122,1111122,1111122' 
SCCF RECON,ioos:station:SCCF:53:1,2013-02-03T00:30:00Z,26.6493,-81.8810,2.11,2.1,316.6,-9999.0,'1111122,1111122,1111122' 
SCCF RECON,ioos:station:SCCF:53:1,2013-02-03T00:45:00Z,26.6493,-81.8810,2.11,1.5,328.6,-9999.0,'1111122,1111122,1111122' 
SCCF RECON,ioos:station:SCCF:53:1,2013-02-03T01:00:00Z,26.6493,-81.8810,2.11,4.3,331.2,-9999.0,'1111122,1111122,1111122' 